Litchfield, MN

8:27 AM CDT on August 30, 2016 (GMT -0500)
Litchfield Municipal

Weather History for KLJF - November, 2012

Change the Weather History Date:

Sunday, November 18, 2012

  Actual Average Record
Temperature  
Mean Temperature 50 °F -  
Max Temperature 57 °F 38 °F 64 °F (1953)
Min Temperature 42 °F 23 °F -1 °F (1989)
Degree Days  
Heating Degree Days 16    
Moisture  
Dew Point 34 °F    
Average Humidity 56    
Maximum Humidity 66    
Minimum Humidity 44    
Precipitation  
Precipitation 0.00 in - - ()
Sea Level Pressure  
Sea Level Pressure 30.06 in    
Wind  
Wind Speed 8 mph (SSE)    
Max Wind Speed 12 mph    
Max Gust Speed 18 mph    
Visibility 10 miles    
Events      
Averages and records for this station are not official NWS values.
T = Trace of Precipitation, MM = Missing Value Source: NWS Daily Summary

Daily Weather History Graph

Daily Weather History Graph

Search for Another Location

Airport or City:

Trip Planner

Search our weather history database for the weather conditions in past years. The results will help you decide how hot, cold, wet, or windy it might be!

Date:

Astronomy

Nov. 18, 2012 Rise Set
Actual Time 7:20 AM CST 4:45 PM CST
Civil Twilight 6:48 AM CST 5:17 PM CST
Nautical Twilight 6:12 AM CST 5:53 PM CST
Astronomical Twilight 5:37 AM CST 6:28 PM CST
Moon 11:45 AM CST (11/18) 10:10 PM CST (11/18)
Length of Visible Light 10h 29m
Length of Day
9h 24m
Waxing Crescent, 30% of the Moon is Illuminated
Nov 18
Waxing Crescent
Nov 20
First Quarter
Nov 28
Full
Dec 6
Last Quarter
Dec 13
New

Hourly Weather History & Observations

Time (CST) Temp. Windchill Dew Point Humidity Pressure Visibility Wind Dir Wind Speed Gust Speed Precip Events Conditions
12:13 AM 48.2 °F - 33.8 °F 58% 30.13 in 10.0 mi SSE 11.5 mph 16.1 mph N/A   Clear
12:33 AM 48.2 °F - 33.8 °F 58% 30.12 in 10.0 mi SSE 9.2 mph - N/A   Mostly Cloudy
12:53 AM 48.2 °F - 33.8 °F 58% 30.12 in 10.0 mi SSE 9.2 mph - N/A   Overcast
1:13 AM 48.2 °F - 33.8 °F 58% 30.12 in 10.0 mi SSE 8.1 mph 16.1 mph N/A   Overcast
1:33 AM 48.2 °F - 33.8 °F 58% 30.11 in 10.0 mi SSE 9.2 mph - N/A   Mostly Cloudy
1:53 AM 46.4 °F 42.9 °F 33.8 °F 62% 30.11 in 10.0 mi SSE 6.9 mph - N/A   Scattered Clouds
2:13 AM 46.4 °F 42.4 °F 33.8 °F 62% 30.11 in 10.0 mi SSE 8.1 mph - N/A   Mostly Cloudy
2:33 AM 46.4 °F 42.4 °F 33.8 °F 62% 30.11 in 10.0 mi SSE 8.1 mph - N/A   Scattered Clouds
2:53 AM 48.2 °F - 33.8 °F 58% 30.11 in 10.0 mi SSE 6.9 mph - N/A   Scattered Clouds
3:14 AM 46.4 °F 42.9 °F 33.8 °F 62% 30.10 in 10.0 mi SSE 6.9 mph - N/A   Scattered Clouds
3:33 AM 46.4 °F 42.4 °F 33.8 °F 62% 30.10 in 10.0 mi SSE 8.1 mph - N/A   Scattered Clouds
3:53 AM 46.4 °F 41.5 °F 33.8 °F 62% 30.09 in 10.0 mi SSE 10.4 mph - N/A   Mostly Cloudy
4:14 AM 46.4 °F 42.4 °F 33.8 °F 62% 30.09 in 10.0 mi SSE 8.1 mph - N/A   Scattered Clouds
4:33 AM 46.4 °F 42.4 °F 33.8 °F 62% 30.09 in 10.0 mi SSE 8.1 mph - N/A   Clear
4:53 AM 44.6 °F 40.2 °F 33.8 °F 66% 30.09 in 10.0 mi SSE 8.1 mph - N/A   Clear
5:14 AM 44.6 °F 39.2 °F 33.8 °F 66% 30.08 in 10.0 mi SSE 10.4 mph - N/A   Clear
5:33 AM 44.6 °F 40.2 °F 33.8 °F 66% 30.08 in 10.0 mi SSE 8.1 mph - N/A   Clear
5:53 AM 44.6 °F 39.7 °F 33.8 °F 66% 30.08 in 10.0 mi SSE 9.2 mph - N/A   Clear
6:13 AM 44.6 °F 40.2 °F 33.8 °F 66% 30.08 in 10.0 mi SSE 8.1 mph - N/A   Clear
6:33 AM 44.6 °F 40.7 °F 33.8 °F 66% 30.08 in 10.0 mi SSE 6.9 mph - N/A   Clear
6:53 AM 44.6 °F 40.2 °F 32.0 °F 61% 30.08 in 10.0 mi SSE 8.1 mph - N/A   Clear
7:13 AM 44.6 °F 40.2 °F 32.0 °F 61% 30.07 in 10.0 mi SSE 8.1 mph - N/A   Clear
7:33 AM 42.8 °F 37.5 °F 32.0 °F 66% 30.07 in 10.0 mi SSE 9.2 mph - N/A   Clear
7:53 AM 42.8 °F 37.5 °F 32.0 °F 66% 30.07 in 10.0 mi SSE 9.2 mph - N/A   Clear
8:13 AM 42.8 °F 38.0 °F 32.0 °F 66% 30.07 in 10.0 mi SSE 8.1 mph - N/A   Clear
8:33 AM 44.6 °F 40.2 °F 32.0 °F 61% 30.07 in 10.0 mi SSE 8.1 mph - N/A   Clear
8:53 AM 46.4 °F 41.5 °F 32.0 °F 57% 30.07 in 10.0 mi SSE 10.4 mph - N/A   Clear
9:13 AM 46.4 °F 42.4 °F 33.8 °F 62% 30.07 in 10.0 mi SSE 8.1 mph - N/A   Clear
9:33 AM 48.2 °F - 33.8 °F 58% 30.07 in 10.0 mi SSE 6.9 mph - N/A   Clear
9:53 AM 50.0 °F - 33.8 °F 54% 30.07 in 10.0 mi SSE 9.2 mph - N/A   Clear
10:13 AM 50.0 °F - 33.8 °F 54% 30.07 in 10.0 mi South 9.2 mph - N/A   Clear
10:33 AM 51.8 °F - 33.8 °F 50% 30.07 in 10.0 mi South 6.9 mph - N/A   Clear
10:53 AM 51.8 °F - 33.8 °F 50% 30.07 in 10.0 mi South 4.6 mph - N/A   Clear
11:13 AM 53.6 °F - 33.8 °F 47% 30.06 in 10.0 mi SSE 5.8 mph - N/A   Clear
11:33 AM 53.6 °F - 33.8 °F 47% 30.05 in 10.0 mi SSE 5.8 mph - N/A   Clear
11:53 AM 53.6 °F - 33.8 °F 47% - 10.0 mi SSE 6.9 mph - N/A   Clear
12:13 PM 55.4 °F - 33.8 °F 44% 30.04 in 10.0 mi SSE 8.1 mph - N/A   Clear
12:33 PM 55.4 °F - 33.8 °F 44% 30.04 in 10.0 mi SSE 9.2 mph 18.4 mph N/A   Clear
12:53 PM 55.4 °F - 35.6 °F 47% 30.03 in 10.0 mi SSE 5.8 mph - N/A   Clear
1:13 PM 57.2 °F - 35.6 °F 44% 30.03 in 10.0 mi SSE 8.1 mph 17.3 mph N/A   Clear
1:33 PM 57.2 °F - 35.6 °F 44% 30.03 in 10.0 mi SSE 6.9 mph - N/A   Clear
1:53 PM 57.2 °F - 35.6 °F 44% 30.03 in 10.0 mi SSE 5.8 mph - N/A   Clear
2:13 PM 57.2 °F - 35.6 °F 44% 30.03 in 10.0 mi South 6.9 mph - N/A   Clear
2:33 PM 55.4 °F - 35.6 °F 47% 30.03 in 10.0 mi SSE 5.8 mph - N/A   Clear
2:53 PM 55.4 °F - 35.6 °F 47% 30.03 in 10.0 mi SSE 4.6 mph - N/A   Clear
3:13 PM 55.4 °F - 35.6 °F 47% 30.03 in 10.0 mi SSE 6.9 mph - N/A   Clear
3:33 PM 55.4 °F - 35.6 °F 47% 30.03 in 10.0 mi SSE 5.8 mph - N/A   Clear
3:53 PM 55.4 °F - 35.6 °F 47% 30.02 in 10.0 mi SSE 5.8 mph - N/A   Clear
4:13 PM 55.4 °F - 35.6 °F 47% 30.03 in 10.0 mi SSE 5.8 mph - N/A   Clear
4:33 PM 55.4 °F - 35.6 °F 47% 30.03 in 10.0 mi SSE 5.8 mph - N/A   Clear
4:53 PM 53.6 °F - 35.6 °F 51% 30.04 in 10.0 mi SSE 6.9 mph - N/A   Clear
5:13 PM 53.6 °F - 35.6 °F 51% 30.04 in 10.0 mi SSE 5.8 mph - N/A   Scattered Clouds
5:33 PM 53.6 °F - 35.6 °F 51% 30.04 in 10.0 mi SE 6.9 mph - N/A   Clear
5:53 PM 51.8 °F - 35.6 °F 54% 30.04 in 10.0 mi SE 5.8 mph - N/A   Unknown
6:13 PM 51.8 °F - 35.6 °F 54% 30.04 in 10.0 mi SE 5.8 mph - N/A   Unknown
6:33 PM 50.0 °F - 35.6 °F 58% 30.04 in 10.0 mi SE 6.9 mph - N/A   Clear
6:53 PM 48.2 °F - 35.6 °F 62% 30.04 in 10.0 mi SE 6.9 mph - N/A   Clear
7:13 PM 48.2 °F - 35.6 °F 62% 30.04 in 10.0 mi SE 5.8 mph - N/A   Clear
7:33 PM 51.8 °F - 35.6 °F 54% 30.04 in 10.0 mi SSE 6.9 mph - N/A   Clear
7:53 PM 51.8 °F - 35.6 °F 54% 30.04 in 10.0 mi SSE 8.1 mph - N/A   Clear
8:13 PM 51.8 °F - 35.6 °F 54% 30.04 in 10.0 mi SSE 8.1 mph - N/A   Clear
8:33 PM 51.8 °F - 35.6 °F 54% 30.04 in 10.0 mi SSE 5.8 mph - N/A   Clear
8:53 PM 51.8 °F - 35.6 °F 54% 30.04 in 10.0 mi SSE 6.9 mph - N/A   Clear
9:13 PM 51.8 °F - 35.6 °F 54% 30.05 in 10.0 mi SSE 6.9 mph - N/A   Clear
9:33 PM 50.0 °F - 35.6 °F 58% 30.05 in 10.0 mi SSE 5.8 mph - N/A   Clear
9:53 PM 48.2 °F - 35.6 °F 62% 30.05 in 10.0 mi SSE 5.8 mph - N/A   Clear
10:13 PM 48.2 °F - 35.6 °F 62% 30.04 in 10.0 mi SSE 6.9 mph - N/A   Clear
10:33 PM 48.2 °F - 35.6 °F 62% 30.04 in 10.0 mi SSE 6.9 mph - N/A   Clear
10:53 PM 48.2 °F - 35.6 °F 62% 30.04 in 10.0 mi SSE 8.1 mph - N/A   Clear
11:13 PM 48.2 °F - 35.6 °F 62% 30.04 in 10.0 mi SSE 6.9 mph - N/A   Clear
11:33 PM 48.2 °F - 35.6 °F 62% 30.04 in 10.0 mi SSE 6.9 mph - N/A   Clear
11:53 PM 46.4 °F 42.4 °F 35.6 °F 66% 30.03 in 10.0 mi SSE 8.1 mph - N/A   Clear